Regional Weather Roundup
Issued by NWS

Home | Current Version | Previous Version | Text Only | Print | Product List | Glossary On
Versions: 1 2 3 4 5 6 7 8 9 10 11 12 13 14 15 16 17 18 19 20 21 22 23 24 25 26 27 28 29 30 31 32 33 34 35 36 37 38 39 40 41 42 43 44 45 46 47 48 49 50
000
ASUS46 KSEW 031810
RWRWA

WASHINGTON REGIONAL WEATHER ROUNDUP
NATIONAL WEATHER SERVICE SEATTLE WA
1100 AM PDT MON AUG 03 2015

NOTE:"FAIR" INDICATES FEW OR NO CLOUDS BELOW 12,000 FEET WITH NO
SIGNIFICANT WEATHER AND/OR OBSTRUCTIONS TO VISIBILITY.

WAZ505-507>509-031900-
SEATTLE, TACOMA, EVERETT, AND VICINITY

CITY           SKY/WX    TMP DP  RH WIND       PRES   REMARKS
EVERETT        MOSUNNY   67  53  61 VRB5      29.94S
6HR MIN TEMP:  58; 6HR MAX TEMP:  67;

BOEING FIELD   PTSUNNY   71  53  52 SW7       29.92S
6HR MIN TEMP:  68; 6HR MAX TEMP:  72;

RENTON         PTSUNNY   71  56  58 CALM      29.92S
6HR MIN TEMP:  65; 6HR MAX TEMP:  71;

SEATAC AIRPORT PTSUNNY   68  54  60 SW7       29.94S
6HR MIN TEMP:  63; 6HR MAX TEMP:  69;

JBLM-MCCHORD   CLOUDY    69  53  58 CALM      29.93S
6HR MIN TEMP:  63; 6HR MAX TEMP:  69;

PUYALLUP       FAIR      68  57  68 CALM      29.94S
BREMERTON      MOSUNNY   68  55  64 S7        29.95S
6HR MIN TEMP:  57; 6HR MAX TEMP:  70;

JBLM-FT LEWIS  CLOUDY    68  53  58 SW5       29.93S
6HR MIN TEMP:  63; 6HR MAX TEMP:  68;

TACOMA NARROWS PTSUNNY   66  54  65 SW6       29.93F
6HR MIN TEMP:  62; 6HR MAX TEMP:  67;

$$

WAZ001-503-506-510-514-515-031900-
NORTH INTERIOR

CITY           SKY/WX    TMP DP  RH WIND       PRES   REMARKS
BELLINGHAM     MOSUNNY   67  54  63 S15G23    29.90F
6HR MIN TEMP:  59; 6HR MAX TEMP:  67;

FRIDAY HARBOR  SUNNY     66  54  65 SW8       29.91F
6HR MIN TEMP:  49; 6HR MAX TEMP:  67;

EASTSOUND      SUNNY     64  54  68 S6        29.89S
PORT ANGELES   SUNNY     64  55  72 NW14      29.94S
6HR MIN TEMP:  53; 6HR MAX TEMP:  65;

PORT TOWNSEND  FAIR      70  55  60 VRB5      29.93S
NAS WHIDBEY    PTSUNNY   62  55  77 W10       29.97S
6HR MIN TEMP:  53; 6HR MAX TEMP:  63;

ARLINGTON      MOSUNNY   68  50  52 NW9       29.94S
6HR MIN TEMP:  57; 6HR MAX TEMP:  70;

BURLINGTON     SUNNY     70  55  60 VRB6      29.93F
$$

WAZ020-022-039-040-504-511-512-031900-
SOUTHWEST INTERIOR

CITY           SKY/WX    TMP DP  RH WIND       PRES   REMARKS
SHELTON        SUNNY     66  54  65 SW10      29.92S
6HR MIN TEMP:  57; 6HR MAX TEMP:  66;

OLYMPIA        MOSUNNY   67  54  63 S8        29.94S
6HR MIN TEMP:  61; 6HR MAX TEMP:  67;

CHEHALIS       FAIR      68  57  68 SW5       29.95F
KELSO          PTSUNNY   66  55  68 NE6       29.98S
6HR MIN TEMP:  63; 6HR MAX TEMP:  66;

VANCOUVER      PTSUNNY   67  54  63 NW5       29.94S
6HR MIN TEMP:  65; 6HR MAX TEMP:  68; 6HR PCP: TRACE;

SCAPPOOSE, OR  PTSUNNY   67  54  63 CALM      29.94R
6HR MIN TEMP:  61; 6HR MAX TEMP:  68;

PORTLAND, OR   PTSUNNY   68  55  63 NW3       29.95R
6HR MIN TEMP:  67; 6HR MAX TEMP:  69; 6HR PCP: TRACE;

$$

WAZ021-516-517-031900-
WASHINGTON COAST

CITY           SKY/WX    TMP DP  RH WIND       PRES   REMARKS
FORKS          CLOUDY    65  60  84 W12       29.98R
6HR MIN TEMP:  59; 6HR MAX TEMP:  65;

HOQUIAM        MOSUNNY   67  57  70 W12       29.96F
6HR MIN TEMP:  55; 6HR MAX TEMP:  67;

ASTORIA, OR    CLOUDY    63  57  81 NW14      29.98F
6HR MIN TEMP:  59; 6HR MAX TEMP:  65;

$$

WAZ019-023-024-040-518-519-031900-
CASCADE MOUNTAINS AND COLUMBIA GORGE

CITY           SKY/WX    TMP DP  RH WIND       PRES   REMARKS
TROUTDALE, OR  CLOUDY    69  55  60 CALM      29.94R
6HR MIN TEMP:  66; 6HR MAX TEMP:  70;

THE DALLES, OR CLOUDY    79  49  34 NW15G22   29.84R
6HR MIN TEMP:  76; 6HR MAX TEMP:  80;

$$

WAZ026-027-041>044-520-521-031900-
EAST SLOPES

CITY           SKY/WX    TMP DP  RH WIND       PRES   REMARKS
OMAK           PTSUNNY   92  41  17 N10       29.75F
6HR MIN TEMP:  77; 6HR MAX TEMP:  92;

WENATCHEE      PTSUNNY   91  39  16 NW20      29.77F
6HR MIN TEMP:  79; 6HR MAX TEMP:  91;

ELLENSBURG     PTSUNNY   82  41  23 NW25G33   29.83F
6HR MIN TEMP:  74; 6HR MAX TEMP:  86;

YAKIMA         CLOUDY    87  50  27 SW6       29.81R
6HR MIN TEMP:  65; 6HR MAX TEMP:  90;

$$

WAZ028-034-035-031900-
COLUMBIA BASIN

CITY           SKY/WX    TMP DP  RH WIND       PRES   REMARKS
EPHRATA        CLOUDY    89  48  24 SW7       29.76S
6HR MIN TEMP:  75; 6HR MAX TEMP:  89;

MOSES LAKE     CLOUDY    87  46  24 S6        29.78R
6HR MIN TEMP:  63; 6HR MAX TEMP:  87;

PASCO          CLOUDY    88  46  23 W9        29.77S
6HR MIN TEMP:  60; 6HR MAX TEMP:  88;

HERMISTON, OR  CLOUDY    83  48  29 W9        29.79S
6HR MIN TEMP:  63; 6HR MAX TEMP:  83;

$$

WAZ036>038-031900-
NORTHEAST WASHINGTON

CITY           SKY/WX    TMP DP  RH WIND       PRES   REMARKS
SPOKANE GEIGER CLOUDY    80  40  23 SW12      29.84R
6HR MIN TEMP:  67; 6HR MAX TEMP:  81;

SPOKANE FELTS  PTSUNNY   84  46  26 CALM      29.82S
6HR MIN TEMP:  60; 6HR MAX TEMP:  84;

FAIRCHILD AFB  CLOUDY    79  40  24 S7        29.84R
6HR MIN TEMP:  63; 6HR MAX TEMP:  79;

COEURDALENE,ID MOSUNNY   81  43  26 S5        29.82S
6HR MIN TEMP:  59; 6HR MAX TEMP:  81;

DEER PARK      PTSUNNY   81  39  22 S5        29.83R HAZE
6HR MIN TEMP:  53; 6HR MAX TEMP:  81;

$$

WAZ029>033-031900-
SOUTHEAST WASHINGTON

CITY           SKY/WX    TMP DP  RH WIND       PRES   REMARKS
PULLMAN        CLOUDY    80  40  23 W15       29.88S
6HR MIN TEMP:  51; 6HR MAX TEMP:  81;

LEWISTON, ID   CLOUDY    81  40  23 NE7       29.79F
6HR MIN TEMP:  67; 6HR MAX TEMP:  81;

WALLA WALLA    CLOUDY    84  44  24 SW9       29.82S
6HR MIN TEMP:  73; 6HR MAX TEMP:  84;

PENDLETON, OR  CLOUDY    86  37  17 W12G21    29.84S
6HR MIN TEMP:  65; 6HR MAX TEMP:  86;

$$



USA.gov is the U.S. government's official web portal to all federal, state and local government web resources and services.